RH
80 68 63 70 56 56 55 55 70 72 74 77 78 78 81 80 79 82 82 82 82 79
78 77 69 71 70 62 66 52 66 71 73 74 75 78 82 74 82 81 82 82 84 81
75 76 73 71 74 68 67 66 68 72 72 74 75 78 82 78 79 83 78 74 82 83
72 72 73 71 72 73 69 75 70 76 75 75 75 76 81 80 77 81 82 77 81 82
72 72 73 73 70 73 76 70 74 73 74 75 74 75 78 79 69 77 81 78 78 80
68 70 72 74 72 71 74 74 68 72 76 74 73 76 76 77 78 72 78 78 80 78
67 67 68 71 74 71 72 75 72 72 74 73 72 73 73 74 78 78 72 77 78 78
65 66 68 72 72 74 74 71 74 74 72 73 70 63 73 73 76 79 77 73 76 76
65 68 71 72 74 74 76 75 75 76 75 73 62 73 79 74 71 77 79 79 75 75
64 68 71 71 73 76 77 76 79 77 76 76 73 80 81 82 66 72 75 78 77 72
63 66 70 73 75 76 74 77 78 78 78 78 73 83 84 82 69 70 72 74 76 77
61 66 68 74 76 75 76 76 77 75 79 80 78 88 88 86 69 68 73 72 74 75
61 65 67 71 77 76 75 76 70 74 75 80 78 89 92 88 66 69 65 72 75 84
64 66 68 73 76 77 78 76 79 77 76 78 78 78 96 94 74 67 64 63 65 66
Wind_Speed
14 10 11 9 8 8 7 9 11 13 11 12 11 9 6 7 5 6 5 5 4 3
17 15 14 13 9 7 8 6 7 15 12 12 10 11 7 6 9 6 8 7 5 4
20 18 14 13 11 12 8 10 3 15 14 13 12 9 10 8 6 8 7 6 8 6
18 19 17 14 14 11 11 7 10 10 14 13 12 12 10 10 9 11 10 9 7 10
18 18 19 18 16 15 12 13 10 9 11 13 14 13 14 14 13 11 14 13 10 10
20 19 19 19 19 16 16 14 15 12 13 14 14 15 14 14 14 13 13 12 12 9
20 20 19 18 18 19 18 17 17 17 15 14 15 15 15 15 14 14 12 13 13 14
20 19 18 18 18 18 19 18 18 17 16 16 16 14 16 16 17 17 16 14 13 14
20 19 19 19 19 18 18 18 17 18 18 18 15 19 20 18 15 16 17 16 16 15
19 19 19 18 19 18 19 18 18 18 19 20 20 20 22 23 18 17 17 18 16 15
16 18 18 19 19 19 17 18 18 18 19 19 19 19 21 23 22 19 20 20 20 18
15 16 18 20 19 17 16 17 17 17 18 20 19 19 21 19 19 20 22 20 20 20
14 16 18 18 17 16 15 16 14 17 18 20 20 19 21 20 15 19 17 18 19 21
15 16 15 13 14 14 15 14 16 16 16 19 20 21 19 22 19 19 17 16 16 17
Wind_Direction
214 196 213 227 201 219 207 197 184 191 180 180 188 212 201 169 199 181 204 226 221 284
203 213 203 220 217 201 222 219 181 181 183 186 187 194 202 198 188 195 187 206 211 219
197 203 210 198 221 213 207 224 213 176 186 185 191 194 193 197 211 196 190 206 198 206
201 200 206 214 202 217 215 212 222 182 187 189 190 197 198 207 199 194 203 196 207 197
201 202 203 209 212 203 210 210 220 196 192 189 194 197 202 204 215 206 199 205 206 195
208 205 206 205 209 211 204 217 209 207 202 200 200 201 204 209 212 225 208 204 207 211
206 209 209 207 207 211 214 206 215 215 206 205 206 206 206 206 211 217 232 208 209 206
206 207 210 208 210 211 211 216 210 213 217 209 209 211 209 209 208 212 217 228 210 212
202 205 207 211 210 211 213 216 216 214 212 216 215 208 201 205 214 212 216 219 224 217
198 202 204 206 212 212 213 211 216 215 214 216 219 209 200 200 211 215 217 218 221 223
196 200 201 205 210 212 211 213 214 216 218 222 222 210 204 201 215 217 218 218 216 217
197 198 201 206 208 208 210 214 214 217 218 224 229 211 206 195 216 225 226 222 219 217
207 206 208 206 206 207 213 217 217 220 222 224 231 221 208 196 220 229 229 230 228 217
205 213 212 208 202 205 211 218 219 226 225 229 230 233 207 199 216 227 227 228 224 227